FW9638 Weather Reports


Display with metric or nautical units.
time (UTC)temp
F
wind
direction
speed
MPH
gust
MPH
rain 1hr
in
rain 24hr
in
rain mn
in
humidity
%
barometer
mb
20260505094518 71 77 0.0 3.0 0.00 0.07 0.06 51 1023.0
20260505093516 71 52 1.0 2.0 0.00 0.07 0.06 51 1023.0
20260505092534 71 46 0.0 1.0 0.00 0.07 0.06 51 1022.9
20260505091532 71 46 0.0 1.0 0.00 0.07 0.06 51 1022.9
20260505090530 71 0.0 0.0 0.00 0.07 0.06 51 1022.9
20260505085553 71 0.0 0.0 0.00 0.07 0.06 51 1022.8
20260505084536 71 36 0.0 2.0 0.00 0.07 0.06 51 1022.7
20260505083530 71 13 0.0 2.0 0.00 0.07 0.06 51 1022.6
20260505082528 71 22 0.0 1.0 0.00 0.07 0.06 51 1022.6
20260505081521 71 0.0 0.0 0.00 0.07 0.06 52 1022.4
20260505080519 71 0.0 0.0 0.00 0.07 0.06 51 1022.4
20260505075518 71 0.0 0.0 0.00 0.07 0.06 52 1022.2
20260505074556 71 0.0 0.0 0.00 0.07 0.06 51 1022.1
20260505073534 71 83 1.0 2.0 0.00 0.07 0.06 51 1022.0
20260505072613 71 73 0.0 1.0 0.00 0.07 0.06 52 1021.9
20260505071530 71 0.0 0.0 0.00 0.07 0.06 52 1021.9
20260505070528 71 72 0.0 3.0 0.00 0.07 0.06 52 1021.8
20260505065527 70 13 0.0 1.0 0.00 0.07 0.06 52 1021.6
20260505064525 71 29 0.0 3.0 0.00 0.07 0.06 52 1021.6
20260505063543 71 31 0.0 2.0 0.00 0.07 0.06 52 1021.5
20260505062546 71 4 3.0 8.0 0.00 0.07 0.06 52 1021.5
20260505061544 70 31 1.0 3.0 0.00 0.07 0.06 52 1021.5
20260505060518 70 118 1.0 4.0 0.00 0.07 0.06 52 1021.4
20260505055536 70 101 2.0 7.0 0.00 0.07 0.06 52 1021.4
20260505054534 70 89 1.0 6.0 0.00 0.07 0.06 52 1021.2
20260505053532 70 46 1.0 2.0 0.00 0.07 0.06 52 1021.2
20260505052530 70 77 1.0 2.0 0.00 0.07 0.06 52 1021.0
20260505051528 70 83 1.0 4.0 0.00 0.07 0.06 52 1021.1
20260505050527 70 44 1.0 3.0 0.00 0.07 0.06 52 1020.9
20260505041517 70 18 2.0 6.0 0.00 0.07 0.06 53 1020.4
20260505040536 70 27 2.0 9.0 0.00 0.07 0.06 53 1020.4
20260505035533 70 22 2.0 6.0 0.00 0.07 0.06 53 1020.5
20260505034533 70 28 1.0 4.0 0.00 0.07 0.06 53 1020.5
20260505033535 70 15 2.0 7.0 0.00 0.07 0.06 53 1020.5
20260505032528 70 32 3.0 7.0 0.00 0.07 0.06 54 1020.5
20260505031526 70 24 2.0 6.0 0.00 0.07 0.06 54 1020.5
20260505030529 70 48 2.0 9.0 0.00 0.07 0.06 54 1020.5
20260505025523 70 10 2.0 6.0 0.00 0.07 0.06 54 1020.4
20260505024521 70 37 2.0 4.0 0.00 0.07 0.06 54 1020.4
20260505023519 69 31 3.0 8.0 0.00 0.07 0.06 54 1020.5
20260505022524 69 13 2.0 7.0 0.00 0.07 0.06 54 1020.6
20260505021540 69 9 5.0 9.0 0.00 0.07 0.06 54 1020.9
20260505020533 69 20 2.0 7.0 0.00 0.07 0.06 54 1020.8
20260505015537 69 21 3.0 10.0 0.00 0.07 0.06 55 1020.9
20260505014555 69 23 2.0 8.0 0.00 0.07 0.06 55 1021.0
20260505013528 69 1 6.0 16.0 0.00 0.07 0.06 55 1021.0
20260505012526 69 14 3.0 8.0 0.00 0.07 0.06 55 1021.1
20260505011610 69 18 5.0 13.0 0.00 0.07 0.06 56 1021.0
20260505010543 69 34 5.0 11.0 0.00 0.07 0.06 56 1020.8
20260505005541 68 12 2.0 8.0 0.00 0.07 0.06 56 1020.9
20260505004524 68 27 1.0 7.0 0.00 0.07 0.06 56 1021.0
20260505003522 68 27 2.0 6.0 0.00 0.07 0.06 56 1020.9
20260505002540 68 10 4.0 10.0 0.00 0.07 0.06 57 1020.7
20260505001539 68 48 2.0 6.0 0.00 0.07 0.06 57 1020.6
20260505000537 68 45 2.0 7.0 0.00 0.07 0.06 57 1020.4
20260504235530 67 49 2.0 6.0 0.00 0.07 0.06 57 1020.3
20260504234528 67 27 2.0 6.0 0.00 0.07 0.06 57 1020.1
20260504233526 67 35 1.0 7.0 0.00 0.07 0.06 57 1020.2
20260504232524 67 60 2.0 6.0 0.00 0.07 0.06 58 1020.1
20260504231527 67 26 3.0 9.0 0.00 0.07 0.06 58 1020.0
20260504230520 67 30 3.0 13.0 0.00 0.07 0.06 58 1019.9
20260504225519 66 29 1.0 6.0 0.00 0.07 0.06 58 1019.8
20260504224517 66 50 1.0 3.0 0.00 0.07 0.06 58 1019.7
20260504223555 66 31 3.0 7.0 0.00 0.07 0.06 58 1019.5
20260504222533 66 31 2.0 8.0 0.00 0.07 0.06 58 1019.4
20260504221531 66 27 2.0 4.0 0.00 0.07 0.06 58 1019.3
20260504220529 65 33 1.0 3.0 0.01 0.07 0.06 59 1019.1
20260504215550 65 41 3.0 8.0 0.02 0.07 0.06 59 1018.8
20260504214526 65 22 3.0 8.0 0.02 0.07 0.06 59 1018.5
20260504213529 65 23 2.0 6.0 0.02 0.07 0.06 59 1018.3
20260504212527 65 16 3.0 8.0 0.01 0.07 0.06 59 1018.3
20260504211541 65 29 2.0 4.0 0.02 0.07 0.06 59 1018.0
20260504210523 64 20 2.0 6.0 0.01 0.07 0.05 58 1017.8
20260504205517 64 14 2.0 9.0 0.00 0.06 0.04 57 1017.7
20260504204535 64 16 2.0 4.0 0.00 0.06 0.04 56 1017.6
20260504203533 64 20 2.0 7.0 0.00 0.06 0.04 55 1017.5
20260504202533 64 27 3.0 7.0 0.00 0.06 0.04 55 1017.3
20260504201530 65 355 1.0 8.0 0.00 0.06 0.04 55 1017.1
20260504200527 65 69 1.0 3.0 0.00 0.06 0.04 55 1017.0
20260504195526 65 15 1.0 3.0 0.00 0.06 0.04 55 1016.8
20260504194524 65 11 2.0 6.0 0.01 0.06 0.04 55 1016.7
20260504193522 65 73 2.0 7.0 0.01 0.06 0.04 55 1016.6
20260504192522 65 72 1.0 3.0 0.01 0.06 0.04 55 1016.5
20260504191518 65 90 1.0 3.0 0.01 0.05 0.04 54 1016.3
20260504190538 65 90 2.0 7.0 0.01 0.05 0.04 54 1016.4
20260504185536 65 109 2.0 8.0 0.01 0.05 0.04 54 1016.3
20260504184533 65 103 2.0 8.0 0.01 0.05 0.03 54 1016.1
20260504183531 66 79 2.0 7.0 0.01 0.05 0.03 54 1016.0
20260504182550 66 95 2.0 7.0 0.01 0.05 0.03 54 1015.9
20260504181548 66 106 2.0 6.0 0.01 0.04 0.03 54 1015.8
20260504180526 66 91 3.0 8.0 0.01 0.04 0.03 54 1015.7
20260504175524 66 91 2.0 3.0 0.01 0.04 0.03 54 1015.6
20260504174543 66 86 2.0 6.0 0.01 0.04 0.02 53 1015.6
20260504173522 66 98 2.0 7.0 0.01 0.04 0.02 53 1015.6
20260504172518 66 87 2.0 6.0 0.01 0.04 0.02 53 1015.5
20260504171517 67 80 2.0 6.0 0.01 0.04 0.02 53 1015.5
20260504170535 67 103 2.0 7.0 0.01 0.04 0.02 53 1015.5
20260504150533 69 92 4.0 13.0 0.01 0.02 0.01 52 1014.9
20260504140524 70 94 3.0 9.0 0.00 0.02 0.00 52 1014.7
20260504130531 71 71 3.0 9.0 0.00 0.01 0.01 52 1014.5
20260504110529 71 111 6.0 13.0 0.00 0.00 0.00 53 1013.4
20260504100518 71 102 6.0 11.0 0.00 0.00 0.00 53 1012.2